| time (UTC) | temp F | wind direction | speed knots | gust knots | rain 1hr in | rain 24hr in | rain mn in | humidity % | barometer mb |
| 20260508025213 | 48 | 228 | 0.9 | 0.9 | 0.00 | 0.00 | 0.00 | 43 | 1009.4 |
| 20260508024709 | 47 | 228 | 0.9 | 0.9 | 0.00 | 0.00 | 0.00 | 41 | 1009.3 |
| 20260508024206 | 48 | 242 | 0.9 | 0.9 | 0.00 | 0.00 | 0.00 | 42 | 1009.3 |
| 20260508023702 | 48 | 242 | 0.9 | 0.9 | 0.00 | 0.00 | 0.00 | 41 | 1009.4 |
| 20260508023200 | 48 | 243 | 0.9 | 0.9 | 0.00 | 0.00 | 0.00 | 40 | 1009.5 |
| 20260508022655 | 49 | 243 | 0.9 | 0.9 | 0.00 | 0.00 | 0.00 | 40 | 1009.4 |
| 20260508022153 | 49 | 243 | 0.9 | 0.9 | 0.00 | 0.00 | 0.00 | 39 | 1009.4 |
| 20260508021649 | 50 | 244 | 0.9 | 0.9 | 0.00 | 0.00 | 0.00 | 38 | 1009.2 |
| 20260508021144 | 50 | 243 | 0.0 | 0.9 | 0.00 | 0.00 | 0.00 | 38 | 1009.2 |
| 20260508020642 | 51 | 243 | 0.9 | 0.9 | 0.00 | 0.00 | 0.00 | 35 | 1009.1 |
| 20260508020140 | 51 | 243 | 0.9 | 0.9 | 0.00 | 0.00 | 0.00 | 35 | 1009.0 |
| 20260508015637 | 51 | 243 | 0.9 | 0.9 | 0.00 | 0.00 | 0.00 | 35 | 1009.0 |
| 20260508015134 | 51 | 243 | 0.9 | 0.9 | 0.00 | 0.00 | 0.00 | 34 | 1009.1 |
| 20260508014630 | 52 | 243 | 0.9 | 0.9 | 0.00 | 0.00 | 0.00 | 33 | 1009.1 |
| 20260508014126 | 52 | 244 | 0.9 | 0.9 | 0.00 | 0.00 | 0.00 | 33 | 1009.0 |
| 20260508013623 | 52 | 244 | 0.0 | 0.9 | 0.00 | 0.00 | 0.00 | 33 | 1008.9 |
| 20260508013120 | 53 | 244 | 0.0 | 0.0 | 0.00 | 0.00 | 0.00 | 32 | 1009.0 |
| 20260508012617 | 53 | 244 | 0.9 | 0.9 | 0.00 | 0.00 | 0.00 | 32 | 1008.9 |
| 20260508012114 | 54 | 244 | 0.0 | 0.0 | 0.00 | 0.00 | 0.00 | 32 | 1008.8 |
| 20260508011613 | 55 | 244 | 0.0 | 0.9 | 0.00 | 0.00 | 0.00 | 30 | 1008.8 |
| 20260508011109 | 55 | 245 | 0.9 | 0.9 | 0.00 | 0.00 | 0.00 | 29 | 1008.9 |
| 20260508010606 | 56 | 264 | 0.9 | 0.9 | 0.00 | 0.00 | 0.00 | 28 | 1008.9 |
| 20260508010105 | 56 | 283 | 0.9 | 1.7 | 0.00 | 0.00 | 0.00 | 28 | 1008.8 |
| 20260508005600 | 56 | 268 | 0.9 | 0.9 | 0.00 | 0.00 | 0.00 | 27 | 1009.0 |
| 20260508005057 | 57 | 276 | 0.9 | 4.3 | 0.00 | 0.00 | 0.00 | 27 | 1008.8 |
| 20260508004553 | 57 | 258 | 0.0 | 0.9 | 0.00 | 0.00 | 0.00 | 28 | 1008.8 |
| 20260508004050 | 57 | 269 | 0.0 | 1.7 | 0.00 | 0.00 | 0.00 | 27 | 1008.8 |
| 20260508003546 | 57 | 190 | 2.6 | 2.6 | 0.00 | 0.00 | 0.00 | 26 | 1008.9 |
| 20260508003044 | 57 | 326 | 2.6 | 2.6 | 0.00 | 0.00 | 0.00 | 26 | 1008.8 |
| 20260508002540 | 57 | 276 | 1.7 | 2.6 | 0.00 | 0.00 | 0.00 | 26 | 1008.9 |
| 20260508002038 | 58 | 218 | 1.7 | 1.7 | 0.00 | 0.00 | 0.00 | 26 | 1008.9 |
| 20260508001533 | 57 | 246 | 0.9 | 5.2 | 0.00 | 0.00 | 0.00 | 26 | 1008.8 |
| 20260508001029 | 58 | 276 | 0.9 | 2.6 | 0.00 | 0.00 | 0.00 | 26 | 1008.9 |
| 20260508000525 | 58 | 264 | 0.9 | 1.7 | 0.00 | 0.00 | 0.00 | 26 | 1008.8 |
| 20260508000023 | 58 | 276 | 0.9 | 1.7 | 0.00 | 0.00 | 0.00 | 25 | 1009.0 |
| 20260507235519 | 58 | 254 | 1.7 | 2.6 | 0.00 | 0.00 | 0.00 | 26 | 1009.1 |
| 20260507235017 | 57 | 312 | 3.5 | 7.0 | 0.00 | 0.00 | 0.00 | 25 | 1009.1 |
| 20260507234513 | 58 | 308 | 1.7 | 6.1 | 0.00 | 0.00 | 0.00 | 25 | 1009.1 |
| 20260507234010 | 58 | 246 | 1.7 | 2.6 | 0.00 | 0.00 | 0.00 | 25 | 1009.1 |
| 20260507233506 | 58 | 255 | 0.9 | 2.6 | 0.00 | 0.00 | 0.00 | 25 | 1009.1 |
| 20260507233005 | 58 | 354 | 2.6 | 4.3 | 0.00 | 0.00 | 0.00 | 25 | 1009.3 |
| 20260507232501 | 59 | 332 | 0.9 | 5.2 | 0.00 | 0.00 | 0.00 | 25 | 1009.3 |
| 20260507231959 | 58 | 235 | 2.6 | 2.6 | 0.00 | 0.00 | 0.00 | 26 | 1009.2 |
| 20260507231455 | 58 | 216 | 0.9 | 2.6 | 0.00 | 0.00 | 0.00 | 23 | 1009.3 |
| 20260507230952 | 58 | 265 | 2.6 | 6.1 | 0.00 | 0.00 | 0.00 | 24 | 1009.2 |
| 20260507230449 | 58 | 289 | 0.9 | 2.6 | 0.00 | 0.00 | 0.00 | 25 | 1009.2 |
| 20260507225944 | 57 | 301 | 1.7 | 4.3 | 0.00 | 0.00 | 0.00 | 25 | 1009.4 |
| 20260507225440 | 58 | 264 | 3.5 | 7.0 | 0.00 | 0.00 | 0.00 | 24 | 1009.4 |
| 20260507224937 | 58 | 251 | 1.7 | 4.3 | 0.00 | 0.00 | 0.00 | 24 | 1009.3 |
| 20260507224432 | 58 | 313 | 2.6 | 2.6 | 0.00 | 0.00 | 0.00 | 24 | 1009.4 |
| 20260507223930 | 58 | 289 | 1.7 | 6.1 | 0.00 | 0.00 | 0.00 | 24 | 1009.4 |
| 20260507223425 | 58 | 291 | 3.5 | 6.1 | 0.00 | 0.00 | 0.00 | 24 | 1009.5 |
| 20260507222922 | 58 | 310 | 2.6 | 2.6 | 0.00 | 0.00 | 0.00 | 24 | 1009.5 |
| 20260507222419 | 57 | 331 | 5.2 | 7.0 | 0.00 | 0.00 | 0.00 | 25 | 1009.6 |
| 20260507221916 | 58 | 318 | 2.6 | 6.1 | 0.00 | 0.00 | 0.00 | 24 | 1009.4 |
| 20260507221412 | 58 | 260 | 0.9 | 5.2 | 0.00 | 0.00 | 0.00 | 25 | 1009.5 |
| 20260507220908 | 59 | 8 | 2.6 | 4.3 | 0.00 | 0.00 | 0.00 | 24 | 1009.6 |
| 20260507220407 | 60 | 242 | 0.9 | 4.3 | 0.00 | 0.00 | 0.00 | 24 | 1009.6 |
| 20260507215903 | 58 | 303 | 1.7 | 4.3 | 0.00 | 0.00 | 0.00 | 25 | 1009.6 |
| 20260507215400 | 58 | 291 | 3.5 | 5.2 | 0.00 | 0.00 | 0.00 | 24 | 1009.6 |
| 20260507214857 | 58 | 258 | 1.7 | 6.1 | 0.00 | 0.00 | 0.00 | 26 | 1009.6 |
| 20260507214354 | 57 | 282 | 1.7 | 4.3 | 0.00 | 0.00 | 0.00 | 26 | 1009.5 |
| 20260507213850 | 57 | 301 | 0.9 | 5.2 | 0.00 | 0.00 | 0.00 | 25 | 1009.9 |
| 20260507213347 | 57 | 261 | 2.6 | 6.1 | 0.00 | 0.00 | 0.00 | 25 | 1009.7 |
| 20260507212844 | 57 | 298 | 3.5 | 5.2 | 0.00 | 0.00 | 0.00 | 26 | 1009.7 |
| 20260507212339 | 57 | 266 | 2.6 | 6.1 | 0.00 | 0.00 | 0.00 | 25 | 1009.9 |
| 20260507211836 | 57 | 278 | 3.5 | 5.2 | 0.00 | 0.00 | 0.00 | 25 | 1009.7 |
| 20260507211333 | 57 | 242 | 2.6 | 7.8 | 0.00 | 0.00 | 0.00 | 27 | 1009.8 |
| 20260507210830 | 58 | 230 | 2.6 | 2.6 | 0.00 | 0.00 | 0.00 | 24 | 1009.9 |
| 20260507210327 | 57 | 231 | 2.6 | 4.3 | 0.00 | 0.00 | 0.00 | 26 | 1009.7 |
| 20260507205823 | 56 | 245 | 3.5 | 6.1 | 0.00 | 0.00 | 0.00 | 26 | 1010.0 |
| 20260507205321 | 57 | 261 | 0.9 | 5.2 | 0.00 | 0.00 | 0.00 | 26 | 1010.0 |
| 20260507204816 | 57 | 223 | 2.6 | 5.2 | 0.00 | 0.00 | 0.00 | 25 | 1010.3 |
| 20260507204314 | 57 | 273 | 1.7 | 4.3 | 0.00 | 0.00 | 0.00 | 25 | 1010.1 |
| 20260507203812 | 55 | 187 | 0.9 | 6.1 | 0.00 | 0.00 | 0.00 | 26 | 1010.1 |
| 20260507203309 | 56 | 270 | 0.9 | 4.3 | 0.00 | 0.00 | 0.00 | 25 | 1010.2 |
| 20260507202805 | 56 | 286 | 1.7 | 7.0 | 0.00 | 0.00 | 0.00 | 25 | 1010.3 |
| 20260507202306 | 57 | 321 | 2.6 | 6.1 | 0.00 | 0.00 | 0.00 | 25 | 1010.3 |
| 20260507201756 | 56 | 247 | 0.9 | 7.0 | 0.00 | 0.00 | 0.00 | 25 | 1010.4 |
| 20260507201253 | 56 | 284 | 4.3 | 6.1 | 0.00 | 0.00 | 0.00 | 25 | 1010.5 |
| 20260507200750 | 55 | 278 | 2.6 | 6.1 | 0.00 | 0.00 | 0.00 | 26 | 1010.4 |
| 20260507200246 | 55 | 231 | 0.9 | 1.7 | 0.00 | 0.00 | 0.00 | 25 | 1010.5 |
| 20260507195742 | 56 | 332 | 2.6 | 6.1 | 0.00 | 0.00 | 0.00 | 26 | 1010.8 |
| 20260507195239 | 57 | 269 | 3.5 | 6.1 | 0.00 | 0.00 | 0.00 | 26 | 1010.4 |
| 20260507194737 | 55 | 253 | 0.9 | 5.2 | 0.00 | 0.00 | 0.00 | 25 | 1010.4 |
| 20260507194232 | 54 | 244 | 2.6 | 4.3 | 0.00 | 0.00 | 0.00 | 29 | 1010.4 |
| 20260507193729 | 55 | 242 | 3.5 | 6.1 | 0.00 | 0.00 | 0.00 | 26 | 1010.7 |
| 20260507193226 | 55 | 289 | 2.6 | 8.7 | 0.00 | 0.00 | 0.00 | 25 | 1010.6 |
| 20260507192722 | 55 | 282 | 2.6 | 5.2 | 0.00 | 0.00 | 0.00 | 25 | 1010.7 |
| 20260507192219 | 55 | 310 | 3.5 | 5.2 | 0.00 | 0.00 | 0.00 | 27 | 1010.6 |
| 20260507191715 | 55 | 268 | 1.7 | 2.6 | 0.00 | 0.00 | 0.00 | 27 | 1010.7 |
| 20260507191212 | 55 | 279 | 1.7 | 6.1 | 0.00 | 0.00 | 0.00 | 26 | 1010.7 |
| 20260507190709 | 54 | 276 | 0.9 | 2.6 | 0.00 | 0.00 | 0.00 | 27 | 1010.8 |
| 20260507190208 | 53 | 245 | 1.7 | 7.8 | 0.00 | 0.00 | 0.00 | 29 | 1010.8 |
| 20260507185706 | 54 | 60 | 2.6 | 5.2 | 0.00 | 0.00 | 0.00 | 28 | 1010.8 |
| 20260507185202 | 53 | 282 | 2.6 | 7.0 | 0.00 | 0.00 | 0.00 | 31 | 1010.8 |
| 20260507184700 | 53 | 28 | 5.2 | 6.1 | 0.00 | 0.00 | 0.00 | 29 | 1010.7 |
| 20260507184158 | 53 | 260 | 0.9 | 4.3 | 0.00 | 0.00 | 0.00 | 28 | 1010.7 |
| 20260507183653 | 54 | 324 | 2.6 | 2.6 | 0.00 | 0.00 | 0.00 | 29 | 1010.8 |
| 20260507183151 | 53 | 34 | 1.7 | 2.6 | 0.00 | 0.00 | 0.00 | 30 | 1010.9 |
| 20260507182648 | 53 | 295 | 3.5 | 5.2 | 0.00 | 0.00 | 0.00 | 29 | 1011.0 |
| 20260507182143 | 53 | 273 | 3.5 | 6.1 | 0.00 | 0.00 | 0.00 | 29 | 1011.1 |
| 20260507181640 | 54 | 5 | 2.6 | 4.3 | 0.00 | 0.00 | 0.00 | 31 | 1010.9 |
| 20260507181136 | 53 | 270 | 4.3 | 5.2 | 0.00 | 0.00 | 0.00 | 31 | 1011.1 |
| 20260507180633 | 53 | 252 | 1.7 | 7.0 | 0.00 | 0.00 | 0.00 | 30 | 1010.9 |
| 20260507180130 | 52 | 49 | 2.6 | 5.2 | 0.00 | 0.00 | 0.00 | 31 | 1010.9 |
| 20260507175626 | 51 | 16 | 2.6 | 5.2 | 0.00 | 0.00 | 0.00 | 32 | 1011.0 |
| 20260507175123 | 53 | 290 | 1.7 | 6.1 | 0.00 | 0.00 | 0.00 | 31 | 1011.1 |
| 20260507174620 | 51 | 76 | 0.9 | 2.6 | 0.00 | 0.00 | 0.00 | 32 | 1011.1 |
| 20260507174118 | 52 | 223 | 1.7 | 1.7 | 0.00 | 0.00 | 0.00 | 32 | 1011.0 |
| 20260507173615 | 51 | 296 | 2.6 | 4.3 | 0.00 | 0.00 | 0.00 | 31 | 1011.4 |
| 20260507173112 | 51 | 321 | 3.5 | 6.1 | 0.00 | 0.00 | 0.00 | 32 | 1011.5 |
| 20260507172608 | 51 | 206 | 0.0 | 2.6 | 0.00 | 0.00 | 0.00 | 32 | 1011.4 |
| 20260507172106 | 51 | 33 | 2.6 | 7.0 | 0.00 | 0.00 | 0.00 | 31 | 1011.5 |
| 20260507171600 | 51 | 18 | 2.6 | 8.7 | 0.00 | 0.00 | 0.00 | 31 | 1011.4 |
| 20260507171058 | 51 | 60 | 3.5 | 7.0 | 0.00 | 0.00 | 0.00 | 32 | 1011.7 |
| 20260507170555 | 51 | 8 | 2.6 | 2.6 | 0.00 | 0.00 | 0.00 | 32 | 1011.6 |
| 20260507170051 | 50 | 75 | 5.2 | 7.8 | 0.00 | 0.00 | 0.00 | 31 | 1011.6 |
| 20260507165547 | 50 | 342 | 4.3 | 6.1 | 0.00 | 0.00 | 0.00 | 32 | 1011.8 |
| 20260507165038 | 51 | 273 | 2.6 | 7.8 | 0.00 | 0.00 | 0.00 | 32 | 1011.7 |
| 20260507164534 | 50 | 279 | 3.5 | 4.3 | 0.00 | 0.00 | 0.00 | 33 | 1011.8 |
| 20260507164031 | 50 | 42 | 3.5 | 7.0 | 0.00 | 0.00 | 0.00 | 34 | 1011.8 |
| 20260507163528 | 50 | 308 | 1.7 | 2.6 | 0.00 | 0.00 | 0.00 | 34 | 1011.7 |
| 20260507163026 | 51 | 320 | 2.6 | 7.0 | 0.00 | 0.00 | 0.00 | 34 | 1011.9 |
| 20260507162521 | 50 | 276 | 1.7 | 6.1 | 0.00 | 0.00 | 0.00 | 36 | 1011.8 |
| 20260507162018 | 50 | 351 | 1.7 | 5.2 | 0.00 | 0.00 | 0.00 | 34 | 1011.8 |
| 20260507161514 | 50 | 309 | 2.6 | 2.6 | 0.00 | 0.00 | 0.00 | 36 | 1011.9 |
| 20260507161012 | 49 | 53 | 4.3 | 6.1 | 0.00 | 0.00 | 0.00 | 36 | 1012.1 |
| 20260507160507 | 48 | 306 | 6.1 | 7.0 | 0.00 | 0.00 | 0.00 | 37 | 1012.0 |
| 20260507160004 | 48 | 7 | 0.0 | 4.3 | 0.00 | 0.00 | 0.00 | 37 | 1011.9 |
| 20260507155459 | 49 | 81 | 3.5 | 7.0 | 0.00 | 0.00 | 0.00 | 37 | 1012.2 |
| 20260507154956 | 48 | 49 | 4.3 | 7.0 | 0.00 | 0.00 | 0.00 | 36 | 1012.1 |
| 20260507154453 | 48 | 26 | 2.6 | 4.3 | 0.00 | 0.00 | 0.00 | 36 | 1012.1 |
| 20260507153950 | 48 | 57 | 4.3 | 6.1 | 0.00 | 0.00 | 0.00 | 36 | 1012.2 |
| 20260507153447 | 48 | 33 | 4.3 | 5.2 | 0.00 | 0.00 | 0.00 | 37 | 1012.2 |
| 20260507152943 | 48 | 266 | 1.7 | 5.2 | 0.00 | 0.00 | 0.00 | 39 | 1012.1 |
| 20260507152439 | 46 | 43 | 2.6 | 5.2 | 0.00 | 0.00 | 0.00 | 40 | 1012.2 |
| 20260507151936 | 48 | 51 | 0.9 | 2.6 | 0.00 | 0.00 | 0.00 | 38 | 1012.3 |
| 20260507151432 | 47 | 47 | 4.3 | 7.0 | 0.00 | 0.00 | 0.00 | 38 | 1012.2 |
| 20260507150929 | 47 | 294 | 0.9 | 2.6 | 0.00 | 0.00 | 0.00 | 39 | 1012.3 |
| 20260507150426 | 47 | 168 | 0.0 | 1.7 | 0.00 | 0.00 | 0.00 | 41 | 1012.2 |
| 20260507145922 | 47 | 316 | 2.6 | 4.3 | 0.00 | 0.00 | 0.00 | 43 | 1012.2 |
| 20260507145418 | 47 | 13 | 1.7 | 1.7 | 0.00 | 0.00 | 0.00 | 45 | 1012.1 |
| 20260507144915 | 46 | 314 | 3.5 | 5.2 | 0.00 | 0.00 | 0.00 | 45 | 1012.3 |
| 20260507144412 | 46 | 58 | 3.5 | 4.3 | 0.00 | 0.00 | 0.00 | 45 | 1012.3 |
| 20260507143909 | 45 | 60 | 2.6 | 5.2 | 0.00 | 0.00 | 0.00 | 47 | 1012.3 |
| 20260507143407 | 45 | 46 | 0.9 | 5.2 | 0.00 | 0.00 | 0.00 | 48 | 1012.4 |
| 20260507142903 | 46 | 294 | 2.6 | 5.2 | 0.00 | 0.00 | 0.00 | 50 | 1012.4 |
| 20260507142359 | 46 | 241 | 0.9 | 2.6 | 0.00 | 0.00 | 0.00 | 49 | 1012.3 |
| 20260507141856 | 45 | 213 | 1.7 | 1.7 | 0.00 | 0.00 | 0.00 | 51 | 1012.5 |
| 20260507141352 | 45 | 311 | 1.7 | 2.6 | 0.00 | 0.00 | 0.00 | 50 | 1012.4 |
| 20260507140849 | 45 | 277 | 0.9 | 1.7 | 0.00 | 0.00 | 0.00 | 51 | 1012.6 |
| 20260507140346 | 45 | 44 | 2.6 | 4.3 | 0.00 | 0.00 | 0.00 | 52 | 1012.8 |
| 20260507135844 | 44 | 15 | 1.7 | 2.6 | 0.00 | 0.00 | 0.00 | 55 | 1012.6 |
| 20260507135340 | 46 | 48 | 1.7 | 2.6 | 0.00 | 0.00 | 0.00 | 52 | 1012.5 |
| 20260507134838 | 45 | 230 | 0.0 | 0.9 | 0.00 | 0.00 | 0.00 | 54 | 1012.8 |
| 20260507134333 | 45 | 245 | 0.9 | 0.9 | 0.00 | 0.00 | 0.00 | 54 | 1012.9 |
| 20260507133830 | 44 | 304 | 0.9 | 0.9 | 0.00 | 0.00 | 0.00 | 58 | 1012.8 |
| 20260507133325 | 43 | 209 | 0.0 | 0.9 | 0.00 | 0.00 | 0.00 | 58 | 1013.0 |
| 20260507132824 | 42 | 272 | 0.0 | 0.9 | 0.00 | 0.00 | 0.00 | 61 | 1012.5 |
| 20260507132320 | 42 | 237 | 0.0 | 0.9 | 0.00 | 0.00 | 0.00 | 63 | 1012.9 |
| 20260507131818 | 41 | 254 | 0.9 | 0.9 | 0.00 | 0.00 | 0.00 | 65 | 1012.9 |
| 20260507131314 | 40 | 216 | 0.0 | 0.0 | 0.00 | 0.00 | 0.00 | 68 | 1012.9 |
| 20260507130810 | 40 | 216 | 0.9 | 0.9 | 0.00 | 0.00 | 0.00 | 67 | 1013.0 |
| 20260507130308 | 40 | 216 | 0.0 | 0.0 | 0.00 | 0.00 | 0.00 | 68 | 1013.0 |
| 20260507125807 | 39 | 216 | 0.0 | 0.9 | 0.00 | 0.00 | 0.00 | 69 | 1012.9 |
| 20260507125306 | 39 | 216 | 0.0 | 0.0 | 0.00 | 0.00 | 0.00 | 69 | 1012.9 |
| 20260507124801 | 38 | 215 | 0.0 | 0.0 | 0.00 | 0.00 | 0.00 | 72 | 1013.0 |
| 20260507124257 | 37 | 215 | 0.0 | 0.9 | 0.00 | 0.00 | 0.00 | 73 | 1013.0 |
| 20260507123756 | 37 | 215 | 0.0 | 0.9 | 0.00 | 0.00 | 0.00 | 73 | 1013.1 |
| 20260507123253 | 36 | 214 | 0.0 | 0.9 | 0.00 | 0.00 | 0.00 | 74 | 1013.2 |
| 20260507122748 | 35 | 219 | 0.9 | 0.9 | 0.00 | 0.00 | 0.00 | 75 | 1013.0 |
| 20260507122244 | 34 | 219 | 0.0 | 0.9 | 0.00 | 0.00 | 0.00 | 77 | 1013.0 |
| 20260507121740 | 34 | 219 | 0.0 | 0.9 | 0.00 | 0.00 | 0.00 | 78 | 1013.1 |
| 20260507121236 | 33 | 220 | 0.0 | 0.9 | 0.00 | 0.00 | 0.00 | 79 | 1013.2 |
| 20260507120732 | 33 | 220 | 0.0 | 0.9 | 0.00 | 0.00 | 0.00 | 80 | 1013.0 |
| 20260507120230 | 33 | 220 | 0.0 | 0.0 | 0.00 | 0.00 | 0.00 | 80 | 1013.1 |
| 20260507115726 | 32 | 220 | 0.0 | 0.0 | 0.00 | 0.00 | 0.00 | 81 | 1013.1 |
| 20260507115222 | 32 | 220 | 0.0 | 0.0 | 0.00 | 0.00 | 0.00 | 82 | 1012.9 |
| 20260507114717 | 32 | 219 | 0.0 | 0.9 | 0.00 | 0.00 | 0.00 | 82 | 1013.2 |
| 20260507114215 | 31 | 219 | 0.0 | 0.9 | 0.00 | 0.00 | 0.00 | 83 | 1013.0 |
| 20260507113712 | 30 | 219 | 0.0 | 0.9 | 0.00 | 0.00 | 0.00 | 84 | 1013.0 |
| 20260507113209 | 30 | 219 | 0.0 | 0.9 | 0.00 | 0.00 | 0.00 | 85 | 1012.9 |
| 20260507112707 | 30 | 220 | 0.0 | 0.9 | 0.00 | 0.00 | 0.00 | 86 | 1012.9 |
| 20260507112203 | 29 | 220 | 0.0 | 0.0 | 0.00 | 0.00 | 0.00 | 86 | 1012.9 |
| 20260507111701 | 29 | 220 | 0.0 | 0.0 | 0.00 | 0.00 | 0.00 | 86 | 1012.8 |
| 20260507111158 | 29 | 220 | 0.0 | 0.9 | 0.00 | 0.00 | 0.00 | 86 | 1013.0 |
| 20260507110653 | 29 | 221 | 0.0 | 0.0 | 0.00 | 0.00 | 0.00 | 85 | 1012.8 |
| 20260507110151 | 30 | 221 | 0.0 | 0.0 | 0.00 | 0.00 | 0.00 | 85 | 1013.0 |
| 20260507105647 | 30 | 221 | 0.0 | 0.0 | 0.00 | 0.00 | 0.00 | 85 | 1012.9 |
| 20260507105143 | 30 | 221 | 0.9 | 0.9 | 0.00 | 0.00 | 0.00 | 85 | 1012.8 |
| 20260507104641 | 30 | 221 | 0.0 | 0.9 | 0.00 | 0.00 | 0.00 | 85 | 1012.8 |
| 20260507104137 | 30 | 221 | 0.0 | 0.0 | 0.00 | 0.00 | 0.00 | 85 | 1012.8 |
| 20260507103633 | 30 | 220 | 0.9 | 0.9 | 0.00 | 0.00 | 0.00 | 85 | 1013.0 |
| 20260507103130 | 30 | 220 | 0.0 | 0.0 | 0.00 | 0.00 | 0.00 | 84 | 1012.5 |
| 20260507102626 | 30 | 220 | 0.0 | 0.9 | 0.00 | 0.00 | 0.00 | 84 | 1012.8 |
| 20260507102123 | 30 | 220 | 0.9 | 0.9 | 0.00 | 0.00 | 0.00 | 84 | 1012.9 |
| 20260507101619 | 30 | 220 | 0.0 | 0.0 | 0.00 | 0.00 | 0.00 | 84 | 1012.8 |
| 20260507101115 | 30 | 220 | 0.0 | 0.0 | 0.00 | 0.00 | 0.00 | 84 | 1012.6 |
| 20260507100612 | 30 | 220 | 0.0 | 0.0 | 0.00 | 0.00 | 0.00 | 84 | 1012.9 |
| 20260507100110 | 30 | 220 | 0.0 | 0.0 | 0.00 | 0.00 | 0.00 | 83 | 1012.9 |
| 20260507095608 | 30 | 220 | 0.0 | 0.0 | 0.00 | 0.00 | 0.00 | 83 | 1012.6 |
| 20260507095104 | 31 | 220 | 0.0 | 0.9 | 0.00 | 0.00 | 0.00 | 83 | 1012.9 |
| 20260507094600 | 31 | 219 | 0.0 | 0.0 | 0.00 | 0.00 | 0.00 | 83 | 1012.9 |
| 20260507094057 | 31 | 219 | 0.0 | 0.0 | 0.00 | 0.00 | 0.00 | 83 | 1012.9 |
| 20260507093555 | 31 | 219 | 0.0 | 0.0 | 0.00 | 0.00 | 0.00 | 83 | 1012.6 |
| 20260507093054 | 31 | 219 | 0.0 | 0.0 | 0.00 | 0.00 | 0.00 | 82 | 1012.9 |
| 20260507092549 | 31 | 219 | 0.0 | 0.0 | 0.00 | 0.00 | 0.00 | 82 | 1012.8 |
| 20260507092040 | 31 | 219 | 0.0 | 0.0 | 0.00 | 0.00 | 0.00 | 82 | 1012.8 |
| 20260507091537 | 31 | 219 | 0.0 | 0.0 | 0.00 | 0.00 | 0.00 | 82 | 1013.0 |
| 20260507091033 | 31 | 219 | 0.0 | 0.0 | 0.00 | 0.00 | 0.00 | 81 | 1012.8 |
| 20260507090529 | 32 | 219 | 0.0 | 0.0 | 0.00 | 0.00 | 0.00 | 81 | 1012.9 |
| 20260507090026 | 32 | 219 | 0.0 | 0.0 | 0.00 | 0.00 | 0.00 | 80 | 1013.0 |
| 20260507085524 | 32 | 219 | 0.0 | 0.9 | 0.00 | 0.00 | 0.00 | 80 | 1013.1 |
| 20260507085020 | 33 | 219 | 0.0 | 0.0 | 0.00 | 0.00 | 0.00 | 79 | 1013.1 |
| 20260507084517 | 33 | 219 | 0.0 | 0.0 | 0.00 | 0.00 | 0.00 | 79 | 1013.0 |
| 20260507084014 | 33 | 219 | 0.0 | 0.0 | 0.00 | 0.00 | 0.00 | 78 | 1013.1 |
| 20260507083510 | 33 | 219 | 0.0 | 0.0 | 0.00 | 0.00 | 0.00 | 78 | 1013.1 |
| 20260507083007 | 33 | 219 | 0.0 | 0.0 | 0.00 | 0.00 | 0.00 | 78 | 1013.0 |
| 20260507082503 | 33 | 219 | 0.0 | 0.9 | 0.00 | 0.00 | 0.00 | 78 | 1013.0 |
| 20260507081959 | 33 | 219 | 0.0 | 0.9 | 0.00 | 0.00 | 0.00 | 78 | 1013.2 |
| 20260507081455 | 33 | 219 | 0.0 | 0.9 | 0.00 | 0.00 | 0.00 | 78 | 1013.0 |
| 20260507080953 | 33 | 219 | 0.0 | 0.9 | 0.00 | 0.00 | 0.00 | 77 | 1013.0 |
| 20260507080448 | 34 | 219 | 0.0 | 0.9 | 0.00 | 0.00 | 0.00 | 76 | 1013.0 |
| 20260507075944 | 34 | 219 | 0.0 | 0.0 | 0.00 | 0.00 | 0.00 | 76 | 1012.9 |
| 20260507075441 | 34 | 219 | 0.0 | 0.9 | 0.00 | 0.00 | 0.00 | 76 | 1013.1 |
| 20260507074937 | 34 | 219 | 0.0 | 0.9 | 0.00 | 0.00 | 0.00 | 75 | 1013.2 |
| 20260507074434 | 34 | 219 | 0.0 | 0.0 | 0.00 | 0.00 | 0.00 | 75 | 1013.0 |
| 20260507073932 | 34 | 219 | 0.9 | 0.9 | 0.00 | 0.00 | 0.00 | 76 | 1013.0 |
| 20260507073428 | 34 | 219 | 0.0 | 0.9 | 0.00 | 0.00 | 0.00 | 75 | 1013.2 |
| 20260507072925 | 35 | 219 | 0.0 | 0.9 | 0.00 | 0.00 | 0.00 | 74 | 1013.2 |
| 20260507072422 | 35 | 219 | 0.0 | 0.0 | 0.00 | 0.00 | 0.00 | 73 | 1013.2 |
| 20260507071915 | 35 | 219 | 0.9 | 0.9 | 0.00 | 0.00 | 0.00 | 73 | 1013.2 |
| 20260507071411 | 35 | 219 | 0.9 | 0.9 | 0.00 | 0.00 | 0.00 | 72 | 1013.3 |
| 20260507070907 | 35 | 219 | 0.9 | 0.9 | 0.00 | 0.00 | 0.00 | 72 | 1013.2 |
| 20260507070405 | 36 | 220 | 0.9 | 0.9 | 0.00 | 0.00 | 0.00 | 72 | 1013.5 |
| 20260507065901 | 36 | 220 | 0.0 | 0.9 | 0.00 | 0.00 | 0.00 | 71 | 1013.5 |
| 20260507065357 | 36 | 220 | 0.9 | 0.9 | 0.00 | 0.00 | 0.00 | 70 | 1013.5 |
| 20260507064855 | 36 | 220 | 0.0 | 0.9 | 0.00 | 0.00 | 0.00 | 70 | 1013.5 |
| 20260507064353 | 37 | 220 | 0.0 | 0.0 | 0.00 | 0.00 | 0.00 | 69 | 1013.5 |
| 20260507063851 | 37 | 220 | 0.0 | 0.9 | 0.00 | 0.00 | 0.00 | 69 | 1013.6 |
| 20260507063347 | 37 | 220 | 0.0 | 0.9 | 0.00 | 0.00 | 0.00 | 68 | 1013.5 |
| 20260507062844 | 37 | 220 | 0.0 | 0.0 | 0.00 | 0.00 | 0.00 | 68 | 1013.9 |
| 20260507062341 | 37 | 220 | 0.0 | 0.0 | 0.00 | 0.00 | 0.00 | 67 | 1013.8 |
| 20260507061839 | 38 | 220 | 0.0 | 0.9 | 0.00 | 0.00 | 0.00 | 66 | 1013.9 |
| 20260507061337 | 38 | 220 | 0.0 | 0.9 | 0.00 | 0.00 | 0.00 | 66 | 1013.7 |
| 20260507060835 | 38 | 220 | 0.0 | 0.9 | 0.00 | 0.00 | 0.00 | 65 | 1014.0 |
| 20260507060332 | 38 | 220 | 0.0 | 0.9 | 0.00 | 0.00 | 0.00 | 64 | 1014.0 |
| 20260507055828 | 39 | 220 | 0.0 | 0.0 | 0.00 | 0.00 | 0.00 | 64 | 1013.7 |
| 20260507055323 | 39 | 220 | 0.0 | 0.9 | 0.00 | 0.00 | 0.00 | 64 | 1013.7 |
| 20260507054820 | 39 | 220 | 0.0 | 0.9 | 0.00 | 0.00 | 0.00 | 64 | 1013.8 |
| 20260507054316 | 39 | 220 | 0.0 | 0.9 | 0.00 | 0.00 | 0.00 | 64 | 1013.8 |
| 20260507053814 | 39 | 220 | 0.0 | 0.9 | 0.00 | 0.00 | 0.00 | 64 | 1014.0 |
| 20260507053311 | 39 | 221 | 0.0 | 0.9 | 0.00 | 0.00 | 0.00 | 64 | 1013.8 |
| 20260507052810 | 39 | 218 | 0.9 | 0.9 | 0.00 | 0.00 | 0.00 | 63 | 1013.9 |
| 20260507052307 | 39 | 217 | 0.9 | 0.9 | 0.00 | 0.00 | 0.00 | 64 | 1014.0 |
| 20260507051804 | 39 | 222 | 0.0 | 0.9 | 0.00 | 0.00 | 0.00 | 64 | 1014.0 |
| 20260507051302 | 39 | 223 | 0.0 | 0.9 | 0.00 | 0.00 | 0.00 | 63 | 1013.9 |
| 20260507050758 | 39 | 223 | 0.0 | 0.9 | 0.00 | 0.00 | 0.00 | 63 | 1014.1 |
| 20260507050254 | 39 | 223 | 0.0 | 0.9 | 0.00 | 0.00 | 0.00 | 62 | 1013.9 |
| 20260507045751 | 39 | 223 | 0.0 | 0.0 | 0.00 | 0.00 | 0.00 | 63 | 1014.0 |
| 20260507045247 | 39 | 223 | 0.0 | 0.0 | 0.00 | 0.00 | 0.00 | 63 | 1013.9 |
| 20260507044745 | 39 | 223 | 0.0 | 0.0 | 0.00 | 0.00 | 0.00 | 62 | 1014.1 |
| 20260507044241 | 39 | 223 | 0.0 | 0.9 | 0.00 | 0.00 | 0.00 | 62 | 1014.1 |
| 20260507043737 | 39 | 223 | 0.0 | 0.9 | 0.00 | 0.00 | 0.00 | 62 | 1014.0 |
| 20260507043234 | 39 | 223 | 0.0 | 0.0 | 0.00 | 0.00 | 0.00 | 62 | 1014.2 |
| 20260507042731 | 39 | 223 | 0.0 | 0.9 | 0.00 | 0.00 | 0.00 | 62 | 1014.2 |
| 20260507042226 | 39 | 219 | 0.9 | 0.9 | 0.00 | 0.00 | 0.00 | 62 | 1014.3 |
| 20260507041724 | 39 | 223 | 0.0 | 0.9 | 0.00 | 0.00 | 0.00 | 61 | 1014.2 |
| 20260507041221 | 39 | 223 | 0.0 | 0.9 | 0.00 | 0.00 | 0.00 | 61 | 1014.5 |
| 20260507040718 | 39 | 225 | 0.0 | 0.9 | 0.00 | 0.00 | 0.00 | 62 | 1014.3 |
| 20260507040214 | 39 | 226 | 0.0 | 0.9 | 0.00 | 0.00 | 0.00 | 64 | 1014.3 |
| 20260507035710 | 39 | 231 | 0.9 | 0.9 | 0.00 | 0.00 | 0.00 | 63 | 1014.3 |
| 20260507035205 | 39 | 231 | 0.0 | 0.9 | 0.00 | 0.00 | 0.00 | 63 | 1014.4 |
| 20260507034702 | 39 | 231 | 0.0 | 0.0 | 0.00 | 0.00 | 0.00 | 62 | 1014.5 |
| 20260507034200 | 39 | 231 | 0.0 | 0.9 | 0.00 | 0.00 | 0.00 | 62 | 1014.4 |
| 20260507033658 | 39 | 231 | 0.0 | 0.9 | 0.00 | 0.00 | 0.00 | 62 | 1014.4 |
| 20260507033155 | 39 | 232 | 0.0 | 0.0 | 0.00 | 0.00 | 0.00 | 61 | 1014.6 |
| 20260507032653 | 39 | 232 | 0.0 | 0.9 | 0.00 | 0.00 | 0.00 | 61 | 1014.6 |
| 20260507032148 | 38 | 232 | 0.0 | 0.9 | 0.00 | 0.00 | 0.00 | 61 | 1014.6 |
| 20260507031645 | 38 | 232 | 0.0 | 0.9 | 0.00 | 0.00 | 0.00 | 62 | 1014.6 |
| 20260507031142 | 38 | 231 | 0.9 | 0.9 | 0.00 | 0.00 | 0.00 | 61 | 1014.7 |
| 20260507030639 | 38 | 231 | 0.0 | 0.9 | 0.00 | 0.00 | 0.00 | 60 | 1014.8 |
| 20260507030137 | 38 | 231 | 0.0 | 0.9 | 0.00 | 0.00 | 0.00 | 61 | 1014.7 |
| 20260507025633 | 39 | 232 | 0.0 | 0.0 | 0.00 | 0.00 | 0.00 | 60 | 1014.6 |